sat.trackr.live / text

‹ back to catalog

ICEYE-X6

NORAD 46497 · 2020-068M

PAYLOAD ACTIVE UNKNOWN

§ Identity

Operator
Country
FIN
Launch date
2020-09-28
Launch site
PLMSC
Launch vehicle
Mass (kg)
RCS (m²)

External: N2YO · Heavens-Above · Gunter

§ Orbital elements

Epoch: 2026-09-10T05:49:50.249280Z

Period
95.69 min
Inclination
98.1039°
Eccentricity
0.0007680
Mean motion
15.04897457 rev/d
Perigee alt
546.5 km
Apogee alt
557.1 km
Semi-major
6,930.0 km
B*
7.2584e-5
RAAN
251.0331°
Arg perigee
152.5794°
Mean anomaly
207.5838°
Rev number
32,602

§ Raw data

ICEYE-X61 46497U 20068M   26253.24294270  .00000959  00000+0  72584-4 0  99962 46497  98.1039 251.0331 0007680 152.5794 207.5838 15.04897457326027

JSON: /api/v1/satellites/46497 · /tle

For live sub-satellite position, see the globe view (requires WebGL).

§ Visibility from observer

Set your observer location to see the next 7 days of passes ≥ 10°. The values pass through the URL so the page stays shareable.

No JS? Fill the form by hand. The geolocation button needs JavaScript.

§ Radio — SatNOGS DB

ModeDescriptionDownlinkUplink
FM S-band telemetry 2.264 GHz

1 transmitter · refreshed weekly from db.satnogs.org